User: anonymous   Login
Location: Caltech
(34.1382°N, 118.1253°W)
Time: 21:23:12
(UTC-08:00)
Language:

Cosmos 1937 Rocket - Orbit

View from above orbital plane
View from above orbital plane
View from above satellite
View from above satellite

Ground track
Ground track

The orbit data is extracted from the following two-line orbital elements,

1 19039U 88029B   17346.44447219 +.00000062 +00000-0 +28892-4 0  9996
2 19039 074.0480 331.1653 0022332 100.7451 055.2680 14.38385166556488
Epoch (UTC): 12 December 2017 10:40:02
Eccentricity: 0.0022332
inclination: 74.0480°
perigee height: 748 km
apogee height: 780 km
right ascension of ascending node: 331.1653°
argument of perigee: 100.7451°
revolutions per day: 14.38385166
mean anomaly at epoch: 55.2680°
orbit number at epoch: 55648

The dashed part of the orbit path shows where the satellite is in the earth's shadow,  

DLR